| time (UTC) | temp F | wind direction | speed MPH | gust MPH | rain 1hr in | rain 24hr in | rain mn in | humidity % | barometer mb |
| 20260510024516 | 52 | 0.0 | 0.0 | 0.00 | 0.00 | 0.00 | 55 | 1010.0 | |
| 20260510023517 | 53 | 0.0 | 0.0 | 0.00 | 0.00 | 0.00 | 54 | 1009.8 | |
| 20260510022517 | 54 | 0.0 | 0.0 | 0.00 | 0.00 | 0.00 | 52 | 1009.5 | |
| 20260510021516 | 54 | 0.0 | 0.0 | 0.00 | 0.00 | 0.00 | 51 | 1009.3 | |
| 20260510020517 | 55 | 0.0 | 0.0 | 0.00 | 0.00 | 0.00 | 50 | 1009.2 | |
| 20260510015516 | 56 | 0.0 | 1.0 | 0.00 | 0.00 | 0.00 | 49 | 1009.0 | |
| 20260510014517 | 57 | 0 | 1.0 | 2.0 | 0.00 | 0.00 | 0.00 | 47 | 1008.7 |
| 20260510014017 | 58 | 0.0 | 2.0 | 0.00 | 0.00 | 0.00 | 47 | 1008.5 | |
| 20260510013017 | 59 | 0 | 1.0 | 1.0 | 0.00 | 0.00 | 0.00 | 45 | 1008.3 |
| 20260510012017 | 60 | 68 | 1.0 | 2.0 | 0.00 | 0.00 | 0.00 | 43 | 1008.0 |
| 20260510011017 | 63 | 0 | 2.0 | 4.0 | 0.00 | 0.00 | 0.00 | 40 | 1007.9 |
| 20260510010016 | 64 | 0.0 | 2.0 | 0.00 | 0.00 | 0.00 | 40 | 1007.6 | |
| 20260510005016 | 64 | 0 | 1.0 | 2.0 | 0.00 | 0.00 | 0.00 | 39 | 1007.3 |
| 20260510004017 | 65 | 338 | 2.0 | 7.0 | 0.00 | 0.00 | 0.00 | 38 | 1007.1 |
| 20260510003016 | 66 | 0 | 1.0 | 3.0 | 0.00 | 0.00 | 0.00 | 38 | 1006.9 |
| 20260510002016 | 66 | 338 | 1.0 | 2.0 | 0.00 | 0.00 | 0.00 | 37 | 1006.7 |
| 20260510001017 | 67 | 0 | 1.0 | 4.0 | 0.00 | 0.00 | 0.00 | 37 | 1006.4 |
| 20260510000017 | 68 | 0 | 2.0 | 5.0 | 0.00 | 0.00 | 0.00 | 35 | 1006.3 |
| 20260509235017 | 68 | 315 | 2.0 | 6.0 | 0.00 | 0.00 | 0.00 | 32 | 1006.1 |
| 20260509234017 | 69 | 338 | 2.0 | 5.0 | 0.00 | 0.00 | 0.00 | 30 | 1005.9 |
| 20260509233016 | 69 | 270 | 2.0 | 4.0 | 0.00 | 0.00 | 0.00 | 30 | 1005.7 |
| 20260509232016 | 69 | 338 | 2.0 | 5.0 | 0.00 | 0.00 | 0.00 | 31 | 1005.5 |
| 20260509231017 | 70 | 0 | 3.0 | 8.0 | 0.00 | 0.00 | 0.00 | 30 | 1005.5 |
| 20260509230017 | 70 | 315 | 4.0 | 8.0 | 0.00 | 0.00 | 0.00 | 29 | 1005.4 |
| 20260509225017 | 70 | 315 | 2.0 | 9.0 | 0.00 | 0.00 | 0.00 | 30 | 1005.3 |
| 20260509224017 | 71 | 315 | 2.0 | 5.0 | 0.00 | 0.00 | 0.00 | 30 | 1005.3 |
| 20260509223017 | 71 | 315 | 2.0 | 5.0 | 0.00 | 0.00 | 0.00 | 28 | 1005.1 |
| 20260509222016 | 72 | 338 | 3.0 | 9.0 | 0.00 | 0.00 | 0.00 | 28 | 1005.0 |
| 20260509221016 | 72 | 315 | 3.0 | 6.0 | 0.00 | 0.00 | 0.00 | 29 | 1004.9 |
| 20260509220016 | 73 | 315 | 3.0 | 9.0 | 0.00 | 0.00 | 0.00 | 28 | 1004.7 |
| 20260509215016 | 73 | 315 | 3.0 | 10.0 | 0.00 | 0.00 | 0.00 | 26 | 1004.7 |
| 20260509214017 | 73 | 315 | 4.0 | 12.0 | 0.00 | 0.00 | 0.00 | 29 | 1004.5 |
| 20260509213017 | 74 | 315 | 2.0 | 6.0 | 0.00 | 0.00 | 0.00 | 30 | 1004.3 |
| 20260509212017 | 74 | 315 | 3.0 | 9.0 | 0.00 | 0.00 | 0.00 | 28 | 1004.2 |
| 20260509211017 | 73 | 338 | 3.0 | 7.0 | 0.00 | 0.00 | 0.00 | 27 | 1004.0 |
| 20260509210017 | 74 | 315 | 4.0 | 9.0 | 0.00 | 0.00 | 0.00 | 31 | 1003.9 |
| 20260509205017 | 74 | 293 | 3.0 | 8.0 | 0.00 | 0.00 | 0.00 | 30 | 1003.8 |
| 20260509204016 | 75 | 293 | 3.0 | 8.0 | 0.00 | 0.00 | 0.00 | 29 | 1003.7 |
| 20260509203016 | 74 | 315 | 4.0 | 12.0 | 0.00 | 0.00 | 0.00 | 30 | 1003.8 |
| 20260509202017 | 73 | 315 | 4.0 | 9.0 | 0.00 | 0.00 | 0.00 | 32 | 1003.8 |
| 20260509201016 | 73 | 315 | 4.0 | 10.0 | 0.00 | 0.00 | 0.00 | 31 | 1003.9 |
| 20260509200016 | 72 | 315 | 2.0 | 5.0 | 0.00 | 0.00 | 0.00 | 32 | 1003.8 |
| 20260509195017 | 72 | 270 | 3.0 | 11.0 | 0.00 | 0.00 | 0.00 | 31 | 1003.9 |
| 20260509194017 | 71 | 270 | 5.0 | 16.0 | 0.00 | 0.00 | 0.00 | 31 | 1004.0 |
| 20260509193017 | 71 | 315 | 4.0 | 10.0 | 0.00 | 0.00 | 0.00 | 32 | 1004.1 |
| 20260509192017 | 71 | 203 | 3.0 | 11.0 | 0.00 | 0.00 | 0.00 | 32 | 1004.0 |
| 20260509191016 | 70 | 270 | 4.0 | 14.0 | 0.00 | 0.00 | 0.00 | 33 | 1004.0 |
| 20260509190017 | 71 | 293 | 4.0 | 15.0 | 0.00 | 0.00 | 0.00 | 31 | 1003.9 |
| 20260509185017 | 71 | 225 | 4.0 | 12.0 | 0.00 | 0.00 | 0.00 | 33 | 1003.8 |
| 20260509184016 | 71 | 293 | 3.0 | 13.0 | 0.00 | 0.00 | 0.00 | 30 | 1003.6 |
| 20260509183016 | 70 | 225 | 2.0 | 4.0 | 0.00 | 0.00 | 0.00 | 36 | 1003.7 |
| 20260509182016 | 69 | 225 | 2.0 | 6.0 | 0.00 | 0.00 | 0.00 | 39 | 1003.8 |
| 20260509181016 | 68 | 338 | 1.0 | 4.0 | 0.00 | 0.00 | 0.00 | 35 | 1003.8 |
| 20260509180016 | 68 | 293 | 2.0 | 6.0 | 0.00 | 0.00 | 0.00 | 32 | 1004.1 |
| 20260509175017 | 69 | 270 | 2.0 | 6.0 | 0.00 | 0.00 | 0.00 | 35 | 1004.1 |
| 20260509174017 | 70 | 293 | 1.0 | 3.0 | 0.00 | 0.00 | 0.00 | 35 | 1004.2 |
| 20260509173016 | 69 | 293 | 1.0 | 5.0 | 0.00 | 0.00 | 0.00 | 33 | 1004.2 |
| 20260509172017 | 70 | 270 | 2.0 | 9.0 | 0.00 | 0.00 | 0.00 | 32 | 1004.3 |
| 20260509171017 | 70 | 270 | 2.0 | 7.0 | 0.00 | 0.00 | 0.00 | 32 | 1004.3 |
| 20260509170017 | 70 | 315 | 2.0 | 4.0 | 0.00 | 0.00 | 0.00 | 35 | 1004.3 |
| 20260509165016 | 70 | 293 | 3.0 | 14.0 | 0.00 | 0.00 | 0.00 | 33 | 1004.4 |
| 20260509164016 | 68 | 0 | 2.0 | 10.0 | 0.00 | 0.00 | 0.00 | 38 | 1004.3 |
| 20260509163017 | 68 | 248 | 2.0 | 12.0 | 0.00 | 0.00 | 0.00 | 46 | 1004.3 |
| 20260509162016 | 67 | 270 | 2.0 | 9.0 | 0.00 | 0.00 | 0.00 | 44 | 1004.3 |
| 20260509161017 | 67 | 270 | 1.0 | 3.0 | 0.00 | 0.00 | 0.00 | 51 | 1004.3 |
| 20260509160016 | 67 | 203 | 2.0 | 6.0 | 0.00 | 0.00 | 0.00 | 50 | 1004.2 |
| 20260509155017 | 66 | 248 | 2.0 | 8.0 | 0.00 | 0.00 | 0.00 | 52 | 1004.1 |
| 20260509154017 | 66 | 270 | 2.0 | 6.0 | 0.00 | 0.00 | 0.00 | 54 | 1004.1 |
| 20260509153017 | 65 | 0 | 3.0 | 9.0 | 0.00 | 0.00 | 0.00 | 56 | 1004.0 |
| 20260509152017 | 65 | 0 | 2.0 | 5.0 | 0.00 | 0.00 | 0.00 | 55 | 1004.0 |
| 20260509151016 | 64 | 0 | 4.0 | 13.0 | 0.00 | 0.00 | 0.00 | 54 | 1003.9 |
| 20260509150016 | 63 | 0 | 2.0 | 9.0 | 0.00 | 0.00 | 0.00 | 61 | 1003.9 |
| 20260509145017 | 62 | 0 | 3.0 | 8.0 | 0.00 | 0.00 | 0.00 | 63 | 1003.8 |
| 20260509144017 | 61 | 0 | 3.0 | 9.0 | 0.00 | 0.00 | 0.00 | 65 | 1003.8 |
| 20260509143016 | 61 | 0 | 2.0 | 5.0 | 0.00 | 0.00 | 0.00 | 69 | 1003.9 |
| 20260509142016 | 60 | 0 | 1.0 | 5.0 | 0.00 | 0.00 | 0.00 | 72 | 1003.9 |
| 20260509141017 | 60 | 180 | 3.0 | 7.0 | 0.00 | 0.00 | 0.00 | 70 | 1003.8 |
| 20260509140017 | 59 | 158 | 3.0 | 9.0 | 0.00 | 0.00 | 0.00 | 73 | 1003.8 |
| 20260509135017 | 58 | 248 | 3.0 | 8.0 | 0.00 | 0.00 | 0.00 | 73 | 1003.7 |
| 20260509134016 | 58 | 225 | 2.0 | 5.0 | 0.00 | 0.00 | 0.00 | 75 | 1003.6 |
| 20260509133016 | 57 | 203 | 3.0 | 8.0 | 0.00 | 0.00 | 0.00 | 75 | 1003.4 |
| 20260509132017 | 57 | 203 | 3.0 | 9.0 | 0.00 | 0.00 | 0.00 | 76 | 1003.5 |
| 20260509131016 | 56 | 248 | 2.0 | 5.0 | 0.00 | 0.00 | 0.00 | 78 | 1003.7 |
| 20260509130016 | 56 | 248 | 3.0 | 8.0 | 0.00 | 0.00 | 0.00 | 79 | 1003.8 |
| 20260509125016 | 55 | 248 | 1.0 | 4.0 | 0.00 | 0.00 | 0.00 | 81 | 1003.8 |
| 20260509124016 | 54 | 180 | 3.0 | 8.0 | 0.00 | 0.00 | 0.00 | 81 | 1003.9 |
| 20260509123016 | 54 | 225 | 3.0 | 7.0 | 0.00 | 0.00 | 0.00 | 82 | 1003.6 |
| 20260509122016 | 53 | 203 | 3.0 | 6.0 | 0.00 | 0.00 | 0.00 | 84 | 1003.7 |
| 20260509121017 | 53 | 248 | 2.0 | 6.0 | 0.00 | 0.00 | 0.00 | 85 | 1003.7 |
| 20260509120016 | 52 | 203 | 2.0 | 5.0 | 0.00 | 0.00 | 0.00 | 85 | 1003.6 |
| 20260509115017 | 52 | 225 | 2.0 | 5.0 | 0.00 | 0.00 | 0.00 | 85 | 1003.6 |
| 20260509114017 | 52 | 225 | 3.0 | 8.0 | 0.00 | 0.00 | 0.00 | 85 | 1003.5 |
| 20260509113017 | 52 | 203 | 1.0 | 6.0 | 0.00 | 0.00 | 0.00 | 85 | 1003.3 |
| 20260509112017 | 52 | 225 | 3.0 | 9.0 | 0.00 | 0.00 | 0.00 | 85 | 1003.1 |
| 20260509111017 | 52 | 225 | 3.0 | 7.0 | 0.00 | 0.00 | 0.00 | 85 | 1003.1 |
| 20260509110017 | 52 | 203 | 3.0 | 6.0 | 0.00 | 0.00 | 0.00 | 85 | 1003.1 |
| 20260509105017 | 53 | 225 | 3.0 | 8.0 | 0.00 | 0.00 | 0.00 | 84 | 1003.1 |
| 20260509104017 | 53 | 225 | 2.0 | 4.0 | 0.00 | 0.00 | 0.00 | 84 | 1003.2 |
| 20260509103016 | 53 | 248 | 2.0 | 6.0 | 0.00 | 0.00 | 0.00 | 84 | 1003.4 |
| 20260509102016 | 53 | 225 | 3.0 | 6.0 | 0.00 | 0.00 | 0.00 | 84 | 1003.2 |
| 20260509101016 | 53 | 225 | 3.0 | 7.0 | 0.00 | 0.00 | 0.00 | 84 | 1003.1 |
| 20260509100016 | 53 | 203 | 3.0 | 8.0 | 0.00 | 0.00 | 0.00 | 84 | 1003.1 |
| 20260509095017 | 53 | 203 | 3.0 | 7.0 | 0.00 | 0.00 | 0.00 | 84 | 1003.2 |
| 20260509094016 | 53 | 203 | 3.0 | 7.0 | 0.00 | 0.00 | 0.00 | 84 | 1003.3 |
| 20260509093016 | 53 | 203 | 3.0 | 8.0 | 0.00 | 0.00 | 0.00 | 84 | 1003.6 |
| 20260509092016 | 53 | 203 | 2.0 | 5.0 | 0.00 | 0.00 | 0.00 | 84 | 1003.7 |
| 20260509091016 | 53 | 203 | 3.0 | 7.0 | 0.00 | 0.00 | 0.00 | 84 | 1003.9 |
| 20260509090017 | 53 | 203 | 3.0 | 7.0 | 0.00 | 0.00 | 0.00 | 84 | 1003.9 |
| 20260509085016 | 53 | 225 | 2.0 | 6.0 | 0.00 | 0.00 | 0.00 | 84 | 1004.0 |
| 20260509084016 | 52 | 225 | 3.0 | 6.0 | 0.00 | 0.00 | 0.00 | 84 | 1003.9 |
| 20260509083017 | 52 | 203 | 3.0 | 6.0 | 0.00 | 0.00 | 0.00 | 84 | 1003.9 |
| 20260509082017 | 52 | 203 | 3.0 | 5.0 | 0.00 | 0.00 | 0.00 | 84 | 1004.0 |
| 20260509081017 | 53 | 225 | 3.0 | 7.0 | 0.00 | 0.00 | 0.00 | 83 | 1004.0 |
| 20260509080016 | 53 | 225 | 2.0 | 6.0 | 0.00 | 0.00 | 0.00 | 83 | 1003.9 |
| 20260509075016 | 53 | 203 | 3.0 | 8.0 | 0.00 | 0.00 | 0.00 | 82 | 1003.9 |
| 20260509074017 | 53 | 203 | 4.0 | 9.0 | 0.00 | 0.00 | 0.00 | 82 | 1004.1 |
| 20260509073016 | 53 | 203 | 3.0 | 7.0 | 0.00 | 0.00 | 0.00 | 82 | 1004.3 |
| 20260509072016 | 53 | 203 | 3.0 | 7.0 | 0.00 | 0.00 | 0.00 | 81 | 1004.4 |
| 20260509071016 | 54 | 203 | 3.0 | 7.0 | 0.00 | 0.00 | 0.00 | 81 | 1004.6 |
| 20260509070016 | 54 | 203 | 3.0 | 5.0 | 0.00 | 0.00 | 0.00 | 81 | 1004.7 |
| 20260509065016 | 54 | 203 | 3.0 | 7.0 | 0.00 | 0.00 | 0.00 | 80 | 1004.8 |
| 20260509064017 | 54 | 225 | 3.0 | 6.0 | 0.00 | 0.00 | 0.00 | 80 | 1005.1 |
| 20260509063016 | 54 | 203 | 2.0 | 7.0 | 0.00 | 0.00 | 0.00 | 79 | 1005.1 |
| 20260509062016 | 54 | 0 | 2.0 | 7.0 | 0.00 | 0.00 | 0.00 | 79 | 1005.2 |
| 20260509061016 | 55 | 0 | 3.0 | 7.0 | 0.00 | 0.00 | 0.00 | 79 | 1005.3 |
| 20260509060017 | 55 | 203 | 3.0 | 7.0 | 0.00 | 0.00 | 0.00 | 78 | 1005.3 |
| 20260509055016 | 55 | 225 | 3.0 | 9.0 | 0.00 | 0.00 | 0.00 | 78 | 1005.3 |
| 20260509054016 | 55 | 225 | 3.0 | 9.0 | 0.00 | 0.00 | 0.00 | 77 | 1005.5 |
| 20260509053016 | 56 | 203 | 2.0 | 7.0 | 0.00 | 0.00 | 0.00 | 76 | 1005.6 |
| 20260509052017 | 56 | 203 | 3.0 | 10.0 | 0.00 | 0.00 | 0.00 | 75 | 1005.4 |
| 20260509051016 | 56 | 225 | 4.0 | 9.0 | 0.00 | 0.00 | 0.00 | 74 | 1005.4 |
| 20260509050016 | 56 | 225 | 3.0 | 8.0 | 0.00 | 0.00 | 0.00 | 74 | 1005.5 |
| 20260509045017 | 57 | 225 | 3.0 | 8.0 | 0.00 | 0.00 | 0.00 | 72 | 1005.4 |
| 20260509044017 | 57 | 225 | 3.0 | 9.0 | 0.00 | 0.00 | 0.00 | 71 | 1005.6 |
| 20260509043017 | 57 | 203 | 3.0 | 7.0 | 0.00 | 0.00 | 0.00 | 70 | 1005.4 |
| 20260509042017 | 57 | 203 | 3.0 | 9.0 | 0.00 | 0.00 | 0.00 | 69 | 1005.3 |
| 20260509041017 | 57 | 203 | 4.0 | 10.0 | 0.00 | 0.00 | 0.00 | 68 | 1005.4 |
| 20260509040017 | 57 | 203 | 4.0 | 9.0 | 0.00 | 0.00 | 0.00 | 68 | 1005.4 |
| 20260509035017 | 57 | 203 | 3.0 | 6.0 | 0.00 | 0.00 | 0.00 | 67 | 1005.5 |
| 20260509034017 | 57 | 203 | 3.0 | 7.0 | 0.00 | 0.00 | 0.00 | 65 | 1005.6 |
| 20260509033017 | 56 | 203 | 2.0 | 4.0 | 0.00 | 0.00 | 0.00 | 65 | 1005.6 |
| 20260509032017 | 56 | 180 | 1.0 | 3.0 | 0.00 | 0.00 | 0.00 | 67 | 1005.5 |
| 20260509031017 | 56 | 0.0 | 1.0 | 0.00 | 0.00 | 0.00 | 67 | 1005.6 | |
| 20260509030058 | 56 | 0.0 | 0.0 | 0.00 | 0.00 | 0.00 | 67 | 1005.5 |